Location: Gazon
(48.1318°N, 1.2708°W)
Time: 22:57:55
(UTC+00:00)

IRS-1A Rocket - Pass Details

Date: 18 September 2020
Orbit: 851 x 931 km, 99.2° (Epoch: 25 October)

Event Time Altitude Azimuth Distance (km) Brightness Sun altitude
Exits shadow 19:46:51 - 166° (SSE) 2,955 6.7 -16.5°
Reaches altitude 10° 19:47:42 10° 166° (SSE) 2,630 6.4 -16.6°
Maximum altitude 19:53:36 83° 254° (WSW) 941 4.4 -17.5°
Drops below altitude 10° 19:59:31 10° 343° (NNW) 2,625 7.3 -18.4°
Sets 20:01:56 0° 345° (NNW) 3,562 8.0 -18.8°
